| time (UTC) | temp F | wind direction | speed MPH | gust MPH | rain 1hr in | rain 24hr in | rain mn in | humidity % | barometer mb |
| 20260906222005 | 69 | 123 | 6.0 | 12.0 | 0.00 | 0.01 | 0.01 | 70 | 1016.8 |
| 20260906221504 | 69 | 195 | 6.0 | 9.0 | 0.00 | 0.01 | 0.01 | 71 | 1016.6 |
| 20260906221004 | 69 | 139 | 9.0 | 13.0 | 0.00 | 0.01 | 0.01 | 72 | 1016.7 |
| 20260906220504 | 68 | 127 | 9.0 | 13.0 | 0.00 | 0.01 | 0.01 | 72 | 1016.6 |
| 20260906220005 | 68 | 124 | 6.0 | 12.0 | 0.00 | 0.01 | 0.01 | 72 | 1016.6 |
| 20260906215504 | 69 | 132 | 7.0 | 12.0 | 0.00 | 0.01 | 0.01 | 69 | 1016.7 |
| 20260906214504 | 68 | 145 | 5.0 | 14.0 | 0.00 | 0.01 | 0.01 | 70 | 1016.6 |
| 20260906214004 | 69 | 153 | 6.0 | 10.0 | 0.00 | 0.01 | 0.01 | 69 | 1016.5 |
| 20260906213505 | 69 | 131 | 6.0 | 12.0 | 0.00 | 0.01 | 0.01 | 70 | 1016.6 |
| 20260906213005 | 68 | 183 | 4.0 | 9.0 | 0.00 | 0.01 | 0.01 | 70 | 1016.6 |
| 20260906212005 | 67 | 139 | 6.0 | 12.0 | 0.00 | 0.01 | 0.01 | 71 | 1016.6 |
| 20260906211005 | 67 | 149 | 1.0 | 3.0 | 0.00 | 0.01 | 0.01 | 70 | 1016.5 |
| 20260906210004 | 69 | 184 | 4.0 | 7.0 | 0.00 | 0.01 | 0.01 | 68 | 1016.5 |
| 20260906205505 | 69 | 166 | 6.0 | 9.0 | 0.00 | 0.01 | 0.01 | 67 | 1016.5 |
| 20260906205004 | 69 | 151 | 4.0 | 9.0 | 0.00 | 0.01 | 0.01 | 69 | 1016.5 |
| 20260906204504 | 67 | 121 | 2.0 | 12.0 | 0.00 | 0.01 | 0.01 | 70 | 1016.5 |
| 20260906203504 | 68 | 180 | 3.0 | 6.0 | 0.00 | 0.01 | 0.01 | 71 | 1016.5 |
| 20260906203005 | 66 | 165 | 5.0 | 8.0 | 0.00 | 0.01 | 0.01 | 73 | 1016.5 |
| 20260906202505 | 66 | 185 | 3.0 | 5.0 | 0.00 | 0.01 | 0.01 | 73 | 1016.6 |
| 20260906202005 | 66 | 297 | 2.0 | 3.0 | 0.00 | 0.01 | 0.01 | 74 | 1016.5 |
| 20260906201504 | 65 | 199 | 3.0 | 5.0 | 0.00 | 0.01 | 0.01 | 74 | 1016.6 |
| 20260906201004 | 65 | 192 | 3.0 | 8.0 | 0.00 | 0.01 | 0.01 | 74 | 1016.5 |
| 20260906200504 | 65 | 119 | 5.0 | 8.0 | 0.00 | 0.01 | 0.01 | 75 | 1016.5 |
| 20260906200004 | 65 | 188 | 3.0 | 6.0 | 0.00 | 0.01 | 0.01 | 76 | 1016.6 |
| 20260906195505 | 64 | 200 | 3.0 | 6.0 | 0.00 | 0.01 | 0.01 | 77 | 1016.6 |
| 20260906194504 | 63 | 198 | 3.0 | 6.0 | 0.00 | 0.01 | 0.01 | 79 | 1016.7 |
| 20260906194005 | 63 | 90 | 1.0 | 2.0 | 0.00 | 0.01 | 0.01 | 79 | 1016.7 |
| 20260906193505 | 62 | 83 | 2.0 | 3.0 | 0.00 | 0.01 | 0.01 | 81 | 1016.7 |
| 20260906193005 | 62 | 138 | 2.0 | 5.0 | 0.00 | 0.01 | 0.01 | 79 | 1016.7 |
| 20260906192505 | 62 | 36 | 2.0 | 5.0 | 0.00 | 0.01 | 0.01 | 81 | 1016.8 |
| 20260906191505 | 63 | 123 | 2.0 | 5.0 | 0.00 | 0.01 | 0.01 | 80 | 1016.9 |
| 20260906191005 | 62 | 146 | 1.0 | 2.0 | 0.00 | 0.01 | 0.01 | 80 | 1016.9 |
| 20260906190505 | 62 | 350 | 1.0 | 2.0 | 0.00 | 0.01 | 0.01 | 79 | 1016.9 |
| 20260906190005 | 62 | 153 | 2.0 | 6.0 | 0.00 | 0.01 | 0.01 | 81 | 1016.9 |
| 20260906185505 | 61 | 128 | 4.0 | 5.0 | 0.00 | 0.01 | 0.01 | 82 | 1016.9 |
| 20260906185005 | 61 | 99 | 2.0 | 3.0 | 0.00 | 0.01 | 0.01 | 83 | 1016.9 |
| 20260906184504 | 61 | 121 | 2.0 | 5.0 | 0.00 | 0.01 | 0.01 | 84 | 1016.9 |
| 20260906184004 | 60 | 83 | 2.0 | 3.0 | 0.00 | 0.01 | 0.01 | 84 | 1016.9 |
| 20260906183504 | 60 | 115 | 2.0 | 3.0 | 0.00 | 0.01 | 0.01 | 85 | 1016.9 |
| 20260906183004 | 60 | 172 | 2.0 | 3.0 | 0.00 | 0.01 | 0.01 | 86 | 1016.9 |
| 20260906182504 | 60 | 179 | 1.0 | 2.0 | 0.00 | 0.01 | 0.01 | 86 | 1017.0 |
| 20260906182005 | 60 | 96 | 2.0 | 3.0 | 0.00 | 0.01 | 0.01 | 86 | 1017.0 |
| 20260906181504 | 60 | 124 | 2.0 | 3.0 | 0.00 | 0.01 | 0.01 | 87 | 1016.9 |
| 20260906175505 | 59 | 109 | 1.0 | 2.0 | 0.00 | 0.01 | 0.01 | 88 | 1016.8 |
| 20260906175004 | 59 | 0 | 1.0 | 2.0 | 0.00 | 0.01 | 0.01 | 88 | 1016.8 |
| 20260906174505 | 59 | 10 | 1.0 | 2.0 | 0.00 | 0.01 | 0.01 | 88 | 1016.8 |
| 20260906174004 | 59 | 331 | 1.0 | 2.0 | 0.00 | 0.01 | 0.01 | 88 | 1016.7 |
| 20260906173505 | 59 | 334 | 1.0 | 2.0 | 0.00 | 0.01 | 0.01 | 88 | 1016.7 |
| 20260906173004 | 58 | 344 | 1.0 | 2.0 | 0.00 | 0.01 | 0.01 | 88 | 1016.6 |
| 20260906172504 | 58 | 344 | 1.0 | 2.0 | 0.00 | 0.01 | 0.01 | 88 | 1016.5 |
| 20260906172004 | 58 | 317 | 1.0 | 2.0 | 0.00 | 0.01 | 0.01 | 89 | 1016.5 |
| 20260906171004 | 58 | 335 | 2.0 | 2.0 | 0.00 | 0.01 | 0.01 | 89 | 1016.5 |
| 20260906170504 | 58 | 319 | 1.0 | 2.0 | 0.00 | 0.01 | 0.01 | 89 | 1016.6 |
| 20260906165504 | 58 | 344 | 1.0 | 2.0 | 0.00 | 0.01 | 0.01 | 89 | 1016.4 |
| 20260906165004 | 58 | 346 | 1.0 | 2.0 | 0.00 | 0.01 | 0.01 | 89 | 1016.4 |
| 20260906164504 | 58 | 343 | 1.0 | 2.0 | 0.00 | 0.01 | 0.01 | 89 | 1016.4 |
| 20260906164005 | 58 | 11 | 1.0 | 3.0 | 0.00 | 0.01 | 0.01 | 89 | 1016.3 |
| 20260906163505 | 58 | 252 | 0.0 | 2.0 | 0.00 | 0.01 | 0.01 | 89 | 1016.2 |
| 20260906163009 | 58 | 252 | 0.0 | 0.0 | 0.00 | 0.01 | 0.01 | 89 | 1016.1 |
| 20260906162504 | 57 | 252 | 0.0 | 2.0 | 0.00 | 0.01 | 0.01 | 89 | 1016.2 |
| 20260906162004 | 57 | 252 | 1.0 | 2.0 | 0.00 | 0.01 | 0.01 | 89 | 1016.2 |
| 20260906161504 | 57 | 223 | 1.0 | 2.0 | 0.00 | 0.01 | 0.01 | 89 | 1016.2 |
| 20260906161005 | 57 | 223 | 1.0 | 2.0 | 0.00 | 0.01 | 0.01 | 89 | 1016.2 |
| 20260906160504 | 57 | 223 | 0.0 | 2.0 | 0.00 | 0.01 | 0.01 | 89 | 1016.2 |
| 20260906160005 | 57 | 223 | 1.0 | 2.0 | 0.00 | 0.01 | 0.01 | 89 | 1016.1 |
| 20260906155504 | 57 | 223 | 1.0 | 2.0 | 0.00 | 0.01 | 0.01 | 89 | 1016.2 |
| 20260906155004 | 57 | 223 | 0.0 | 2.0 | 0.00 | 0.01 | 0.01 | 89 | 1016.2 |
| 20260906154504 | 57 | 223 | 0.0 | 2.0 | 0.00 | 0.01 | 0.01 | 89 | 1016.2 |
| 20260906153504 | 57 | 223 | 1.0 | 2.0 | 0.00 | 0.01 | 0.01 | 89 | 1016.1 |
| 20260906153005 | 57 | 223 | 1.0 | 2.0 | 0.00 | 0.01 | 0.01 | 89 | 1016.0 |
| 20260906152005 | 56 | 226 | 1.0 | 2.0 | 0.01 | 0.01 | 0.01 | 89 | 1016.0 |
| 20260906151505 | 56 | 209 | 1.0 | 2.0 | 0.01 | 0.01 | 0.01 | 89 | 1016.0 |
| 20260906150504 | 56 | 225 | 1.0 | 3.0 | 0.01 | 0.01 | 0.01 | 89 | 1015.9 |
| 20260906145505 | 56 | 204 | 2.0 | 3.0 | 0.01 | 0.01 | 0.01 | 89 | 1015.9 |
| 20260906145005 | 56 | 182 | 1.0 | 2.0 | 0.01 | 0.01 | 0.01 | 89 | 1015.9 |
| 20260906144505 | 57 | 182 | 2.0 | 3.0 | 0.01 | 0.01 | 0.01 | 89 | 1015.8 |
| 20260906143504 | 56 | 200 | 1.0 | 2.0 | 0.01 | 0.01 | 0.01 | 88 | 1015.7 |
| 20260906143005 | 57 | 217 | 1.0 | 2.0 | 0.01 | 0.01 | 0.01 | 88 | 1015.7 |
| 20260906142005 | 57 | 138 | 1.0 | 3.0 | 0.00 | 0.00 | 0.00 | 88 | 1015.7 |
| 20260906141005 | 56 | 128 | 1.0 | 2.0 | 0.00 | 0.00 | 0.00 | 88 | 1015.5 |
| 20260906140504 | 56 | 174 | 0.0 | 2.0 | 0.00 | 0.00 | 0.00 | 88 | 1015.4 |
| 20260906135504 | 56 | 174 | 1.0 | 1.0 | 0.00 | 0.00 | 0.00 | 88 | 1015.3 |
| 20260906135004 | 56 | 174 | 1.0 | 1.0 | 0.00 | 0.00 | 0.00 | 88 | 1015.3 |
| 20260906134505 | 56 | 174 | 0.0 | 2.0 | 0.00 | 0.00 | 0.00 | 88 | 1015.3 |
| 20260906134004 | 56 | 174 | 0.0 | 2.0 | 0.00 | 0.00 | 0.00 | 88 | 1015.2 |
| 20260906133504 | 56 | 174 | 1.0 | 1.0 | 0.00 | 0.00 | 0.00 | 88 | 1015.2 |
| 20260906133005 | 57 | 170 | 0.0 | 1.0 | 0.00 | 0.00 | 0.00 | 87 | 1015.2 |
| 20260906132505 | 57 | 170 | 0.0 | 0.0 | 0.00 | 0.00 | 0.00 | 87 | 1015.2 |
| 20260906132004 | 57 | 170 | 0.0 | 2.0 | 0.00 | 0.00 | 0.00 | 87 | 1015.2 |
| 20260906131504 | 57 | 170 | 0.0 | 2.0 | 0.00 | 0.00 | 0.00 | 87 | 1015.2 |
| 20260906131004 | 57 | 170 | 1.0 | 1.0 | 0.00 | 0.00 | 0.00 | 87 | 1015.2 |
| 20260906130504 | 57 | 157 | 0.0 | 0.0 | 0.00 | 0.00 | 0.00 | 87 | 1015.2 |
| 20260906130004 | 57 | 157 | 0.0 | 0.0 | 0.00 | 0.00 | 0.00 | 87 | 1015.1 |
| 20260906125504 | 57 | 157 | 0.0 | 0.0 | 0.00 | 0.00 | 0.00 | 87 | 1015.2 |
| 20260906125004 | 57 | 157 | 0.0 | 0.0 | 0.00 | 0.00 | 0.00 | 87 | 1015.1 |
| 20260906124004 | 57 | 157 | 0.0 | 0.0 | 0.00 | 0.00 | 0.00 | 87 | 1015.2 |
| 20260906123504 | 57 | 157 | 0.0 | 0.0 | 0.00 | 0.00 | 0.00 | 87 | 1015.2 |
| 20260906123005 | 57 | 157 | 0.0 | 0.0 | 0.00 | 0.00 | 0.00 | 87 | 1015.3 |
| 20260906122504 | 57 | 157 | 0.0 | 0.0 | 0.00 | 0.00 | 0.00 | 87 | 1015.4 |
| 20260906122004 | 57 | 157 | 0.0 | 0.0 | 0.00 | 0.00 | 0.00 | 87 | 1015.4 |
| 20260906121504 | 57 | 157 | 0.0 | 0.0 | 0.00 | 0.00 | 0.00 | 87 | 1015.4 |
| 20260906121005 | 57 | 157 | 0.0 | 0.0 | 0.00 | 0.00 | 0.00 | 87 | 1015.4 |
| 20260906120505 | 57 | 157 | 0.0 | 0.0 | 0.00 | 0.00 | 0.00 | 87 | 1015.4 |
| 20260906120004 | 57 | 157 | 0.0 | 0.0 | 0.00 | 0.00 | 0.00 | 87 | 1015.5 |
| 20260906115504 | 57 | 157 | 0.0 | 0.0 | 0.00 | 0.00 | 0.00 | 87 | 1015.4 |
| 20260906115004 | 57 | 157 | 0.0 | 0.0 | 0.00 | 0.00 | 0.00 | 86 | 1015.4 |
| 20260906114505 | 57 | 157 | 0.0 | 0.0 | 0.00 | 0.00 | 0.00 | 86 | 1015.4 |
| 20260906114004 | 57 | 157 | 0.0 | 0.0 | 0.00 | 0.00 | 0.00 | 86 | 1015.3 |
| 20260906113504 | 57 | 157 | 0.0 | 0.0 | 0.00 | 0.00 | 0.00 | 86 | 1015.3 |
| 20260906113004 | 57 | 157 | 0.0 | 0.0 | 0.00 | 0.00 | 0.00 | 86 | 1015.3 |
| 20260906112505 | 57 | 157 | 0.0 | 0.0 | 0.00 | 0.00 | 0.00 | 86 | 1015.3 |
| 20260906112004 | 57 | 157 | 0.0 | 0.0 | 0.00 | 0.00 | 0.00 | 86 | 1015.2 |
| 20260906111504 | 57 | 157 | 0.0 | 0.0 | 0.00 | 0.00 | 0.00 | 86 | 1015.3 |
| 20260906111005 | 57 | 157 | 0.0 | 0.0 | 0.00 | 0.00 | 0.00 | 86 | 1015.3 |
| 20260906110004 | 58 | 157 | 0.0 | 2.0 | 0.00 | 0.00 | 0.00 | 86 | 1015.4 |
| 20260906105505 | 58 | 105 | 0.0 | 1.0 | 0.00 | 0.00 | 0.00 | 85 | 1015.3 |
| 20260906105004 | 58 | 0 | 0.0 | 0.0 | 0.00 | 0.00 | 0.00 | 85 | 1015.3 |
| 20260906104004 | 58 | 0 | 0.0 | 2.0 | 0.00 | 0.00 | 0.00 | 85 | 1015.2 |
| 20260906103504 | 58 | 0 | 0.0 | 1.0 | 0.00 | 0.00 | 0.00 | 85 | 1015.2 |
| 20260906103004 | 58 | 158 | 1.0 | 1.0 | 0.00 | 0.00 | 0.00 | 84 | 1015.1 |
| 20260906102504 | 58 | 99 | 1.0 | 1.0 | 0.00 | 0.00 | 0.00 | 84 | 1015.0 |
| 20260906102004 | 58 | 37 | 0.0 | 2.0 | 0.00 | 0.00 | 0.00 | 84 | 1015.1 |
| 20260906101504 | 59 | 87 | 2.0 | 3.0 | 0.00 | 0.00 | 0.00 | 83 | 1015.1 |
| 20260906101004 | 59 | 108 | 1.0 | 2.0 | 0.00 | 0.00 | 0.00 | 83 | 1015.0 |
| 20260906100505 | 59 | 142 | 1.0 | 2.0 | 0.00 | 0.00 | 0.00 | 83 | 1015.0 |
| 20260906100004 | 59 | 148 | 0.0 | 0.0 | 0.00 | 0.00 | 0.00 | 83 | 1014.9 |
| 20260906095503 | 59 | 148 | 0.0 | 2.0 | 0.00 | 0.00 | 0.00 | 82 | 1015.0 |
| 20260906094505 | 59 | 146 | 0.0 | 2.0 | 0.00 | 0.00 | 0.00 | 82 | 1015.1 |
| 20260906094004 | 59 | 119 | 2.0 | 2.0 | 0.00 | 0.00 | 0.00 | 82 | 1015.0 |
| 20260906093504 | 59 | 111 | 1.0 | 2.0 | 0.00 | 0.00 | 0.00 | 82 | 1015.0 |
| 20260906093004 | 59 | 156 | 0.0 | 2.0 | 0.00 | 0.00 | 0.00 | 82 | 1014.9 |
| 20260906092504 | 59 | 156 | 1.0 | 1.0 | 0.00 | 0.00 | 0.00 | 82 | 1014.9 |
| 20260906092004 | 59 | 146 | 1.0 | 2.0 | 0.00 | 0.00 | 0.00 | 82 | 1015.0 |
| 20260906091504 | 59 | 146 | 0.0 | 2.0 | 0.00 | 0.00 | 0.00 | 81 | 1014.9 |
| 20260906091004 | 60 | 146 | 1.0 | 2.0 | 0.00 | 0.00 | 0.00 | 81 | 1014.8 |
| 20260906090504 | 60 | 146 | 1.0 | 2.0 | 0.00 | 0.00 | 0.00 | 81 | 1014.8 |
| 20260906090004 | 59 | 159 | 1.0 | 2.0 | 0.00 | 0.00 | 0.00 | 81 | 1014.9 |
| 20260906085504 | 60 | 163 | 1.0 | 2.0 | 0.00 | 0.00 | 0.00 | 81 | 1014.9 |
| 20260906084504 | 60 | 193 | 1.0 | 2.0 | 0.00 | 0.00 | 0.00 | 80 | 1014.9 |
| 20260906084004 | 60 | 193 | 1.0 | 2.0 | 0.00 | 0.00 | 0.00 | 80 | 1014.9 |
| 20260906083004 | 60 | 133 | 2.0 | 3.0 | 0.00 | 0.00 | 0.00 | 79 | 1014.9 |
| 20260906082504 | 60 | 123 | 3.0 | 3.0 | 0.00 | 0.00 | 0.00 | 79 | 1014.9 |
| 20260906082004 | 60 | 49 | 1.0 | 2.0 | 0.00 | 0.00 | 0.00 | 78 | 1014.8 |
| 20260906081505 | 60 | 329 | 1.0 | 2.0 | 0.00 | 0.00 | 0.00 | 78 | 1014.8 |
| 20260906081004 | 60 | 197 | 0.0 | 2.0 | 0.00 | 0.00 | 0.00 | 79 | 1014.9 |
| 20260906080504 | 60 | 195 | 1.0 | 2.0 | 0.00 | 0.00 | 0.00 | 78 | 1014.9 |
| 20260906080004 | 61 | 157 | 1.0 | 2.0 | 0.00 | 0.00 | 0.00 | 78 | 1015.0 |
| 20260906075504 | 61 | 174 | 0.0 | 2.0 | 0.00 | 0.00 | 0.00 | 78 | 1015.0 |
| 20260906074504 | 61 | 157 | 1.0 | 2.0 | 0.00 | 0.00 | 0.00 | 76 | 1015.1 |
| 20260906073504 | 61 | 120 | 1.0 | 2.0 | 0.00 | 0.00 | 0.00 | 75 | 1015.2 |
| 20260906073004 | 61 | 231 | 1.0 | 1.0 | 0.00 | 0.00 | 0.00 | 75 | 1015.2 |
| 20260906072504 | 62 | 317 | 0.0 | 2.0 | 0.00 | 0.00 | 0.00 | 75 | 1015.2 |
| 20260906072004 | 62 | 317 | 1.0 | 2.0 | 0.00 | 0.00 | 0.00 | 75 | 1015.3 |
| 20260906071504 | 62 | 336 | 1.0 | 2.0 | 0.00 | 0.00 | 0.00 | 75 | 1015.3 |
| 20260906071004 | 62 | 336 | 0.0 | 2.0 | 0.00 | 0.00 | 0.00 | 74 | 1015.3 |
| 20260906070504 | 62 | 38 | 1.0 | 2.0 | 0.00 | 0.00 | 0.00 | 74 | 1015.4 |
| 20260906070004 | 62 | 74 | 1.0 | 3.0 | 0.00 | 0.00 | 0.00 | 74 | 1015.4 |
| 20260906065504 | 62 | 339 | 1.0 | 3.0 | 0.00 | 0.00 | 0.00 | 74 | 1015.4 |
| 20260906065004 | 62 | 329 | 2.0 | 3.0 | 0.00 | 0.00 | 0.00 | 74 | 1015.2 |
| 20260906064504 | 62 | 338 | 2.0 | 3.0 | 0.00 | 0.00 | 0.00 | 74 | 1015.3 |
| 20260906064004 | 62 | 332 | 2.0 | 5.0 | 0.00 | 0.00 | 0.00 | 74 | 1015.3 |
| 20260906063504 | 62 | 321 | 2.0 | 3.0 | 0.00 | 0.00 | 0.00 | 74 | 1015.2 |
| 20260906063004 | 62 | 319 | 2.0 | 5.0 | 0.00 | 0.00 | 0.00 | 74 | 1015.2 |
| 20260906062503 | 62 | 323 | 3.0 | 5.0 | 0.00 | 0.00 | 0.00 | 74 | 1015.2 |
| 20260906062004 | 62 | 339 | 3.0 | 5.0 | 0.00 | 0.00 | 0.00 | 74 | 1015.2 |
| 20260906061005 | 62 | 330 | 3.0 | 5.0 | 0.00 | 0.00 | 0.00 | 75 | 1015.1 |
| 20260906060004 | 62 | 327 | 3.0 | 9.0 | 0.00 | 0.00 | 0.00 | 75 | 1015.3 |
| 20260906055503 | 62 | 330 | 3.0 | 5.0 | 0.00 | 0.00 | 0.00 | 75 | 1015.2 |
| 20260906055004 | 62 | 328 | 3.0 | 5.0 | 0.00 | 0.00 | 0.00 | 75 | 1015.3 |
| 20260906054504 | 62 | 330 | 4.0 | 7.0 | 0.00 | 0.00 | 0.00 | 74 | 1015.3 |
| 20260906054004 | 62 | 0 | 4.0 | 6.0 | 0.00 | 0.00 | 0.00 | 74 | 1015.3 |
| 20260906053504 | 62 | 354 | 2.0 | 6.0 | 0.00 | 0.00 | 0.00 | 74 | 1015.3 |
| 20260906052503 | 62 | 325 | 3.0 | 6.0 | 0.00 | 0.00 | 0.00 | 74 | 1015.4 |
| 20260906051004 | 63 | 332 | 3.0 | 5.0 | 0.00 | 0.00 | 0.00 | 74 | 1015.5 |
| 20260906050004 | 63 | 336 | 3.0 | 6.0 | 0.00 | 0.00 | 0.00 | 74 | 1015.6 |
| 20260906045503 | 63 | 334 | 3.0 | 6.0 | 0.00 | 0.00 | 0.00 | 73 | 1015.6 |
| 20260906044504 | 63 | 327 | 4.0 | 6.0 | 0.00 | 0.00 | 0.00 | 73 | 1015.7 |
| 20260906044004 | 63 | 329 | 3.0 | 6.0 | 0.00 | 0.00 | 0.00 | 73 | 1015.7 |
| 20260906043504 | 63 | 330 | 3.0 | 5.0 | 0.00 | 0.00 | 0.00 | 72 | 1015.8 |
| 20260906043004 | 63 | 320 | 3.0 | 8.0 | 0.00 | 0.00 | 0.00 | 72 | 1015.8 |
| 20260906042504 | 63 | 322 | 3.0 | 6.0 | 0.00 | 0.00 | 0.00 | 72 | 1015.7 |
| 20260906042004 | 63 | 334 | 3.0 | 8.0 | 0.00 | 0.00 | 0.00 | 72 | 1015.7 |
| 20260906041504 | 63 | 333 | 3.0 | 5.0 | 0.00 | 0.00 | 0.00 | 72 | 1015.7 |
| 20260906041004 | 63 | 338 | 3.0 | 5.0 | 0.00 | 0.00 | 0.00 | 72 | 1015.7 |
| 20260906040503 | 63 | 331 | 3.0 | 6.0 | 0.00 | 0.00 | 0.00 | 72 | 1015.7 |
| 20260906040004 | 63 | 327 | 3.0 | 6.0 | 0.00 | 0.00 | 0.00 | 72 | 1015.6 |
| 20260906035504 | 63 | 329 | 3.0 | 6.0 | 0.00 | 0.00 | 0.00 | 72 | 1015.6 |
| 20260906035004 | 64 | 329 | 3.0 | 6.0 | 0.00 | 0.00 | 0.00 | 71 | 1015.6 |
| 20260906034505 | 64 | 320 | 4.0 | 6.0 | 0.00 | 0.00 | 0.00 | 71 | 1015.6 |
| 20260906033504 | 64 | 329 | 2.0 | 5.0 | 0.00 | 0.00 | 0.00 | 71 | 1015.6 |
| 20260906033004 | 64 | 330 | 2.0 | 5.0 | 0.00 | 0.00 | 0.00 | 70 | 1015.5 |
| 20260906032504 | 64 | 326 | 3.0 | 6.0 | 0.00 | 0.00 | 0.00 | 70 | 1015.5 |
| 20260906032004 | 64 | 330 | 2.0 | 3.0 | 0.00 | 0.00 | 0.00 | 71 | 1015.5 |
| 20260906031504 | 64 | 340 | 1.0 | 2.0 | 0.00 | 0.00 | 0.00 | 71 | 1015.3 |
| 20260906031004 | 64 | 268 | 1.0 | 2.0 | 0.00 | 0.00 | 0.00 | 71 | 1015.3 |
| 20260906030004 | 65 | 7 | 1.0 | 2.0 | 0.00 | 0.00 | 0.00 | 69 | 1015.3 |
| 20260906025504 | 65 | 9 | 0.0 | 2.0 | 0.00 | 0.00 | 0.00 | 69 | 1015.4 |
| 20260906025004 | 65 | 7 | 1.0 | 2.0 | 0.00 | 0.00 | 0.00 | 67 | 1015.3 |
| 20260906024004 | 66 | 6 | 1.0 | 2.0 | 0.00 | 0.00 | 0.00 | 66 | 1015.4 |
| 20260906023504 | 66 | 5 | 0.0 | 2.0 | 0.00 | 0.00 | 0.00 | 66 | 1015.4 |
| 20260906023004 | 67 | 9 | 0.0 | 1.0 | 0.00 | 0.00 | 0.00 | 65 | 1015.3 |
| 20260906022503 | 67 | 9 | 0.0 | 2.0 | 0.00 | 0.00 | 0.00 | 65 | 1015.3 |
| 20260906022004 | 68 | 6 | 0.0 | 1.0 | 0.00 | 0.00 | 0.00 | 63 | 1015.3 |
| 20260906021004 | 69 | 5 | 0.0 | 2.0 | 0.00 | 0.00 | 0.00 | 60 | 1015.4 |
| 20260906020505 | 70 | 9 | 0.0 | 2.0 | 0.00 | 0.00 | 0.00 | 59 | 1015.3 |
| 20260906020004 | 71 | 6 | 0.0 | 2.0 | 0.00 | 0.00 | 0.00 | 58 | 1015.4 |
| 20260906015504 | 71 | 5 | 0.0 | 2.0 | 0.00 | 0.00 | 0.00 | 56 | 1015.4 |
| 20260906015004 | 71 | 9 | 0.0 | 2.0 | 0.00 | 0.00 | 0.00 | 56 | 1015.4 |
| 20260906014503 | 71 | 6 | 1.0 | 1.0 | 0.00 | 0.00 | 0.00 | 57 | 1015.4 |
| 20260906014004 | 71 | 6 | 1.0 | 2.0 | 0.00 | 0.00 | 0.00 | 57 | 1015.5 |
| 20260906013504 | 71 | 5 | 0.0 | 1.0 | 0.00 | 0.00 | 0.00 | 56 | 1015.4 |
| 20260906013004 | 70 | 0 | 1.0 | 1.0 | 0.00 | 0.00 | 0.00 | 55 | 1015.4 |
| 20260906012004 | 70 | 329 | 1.0 | 2.0 | 0.00 | 0.00 | 0.00 | 56 | 1015.4 |
| 20260906011504 | 70 | 34 | 1.0 | 2.0 | 0.00 | 0.00 | 0.00 | 58 | 1015.4 |
| 20260906011004 | 70 | 324 | 1.0 | 2.0 | 0.00 | 0.00 | 0.00 | 57 | 1015.5 |
| 20260906010505 | 70 | 76 | 2.0 | 3.0 | 0.00 | 0.00 | 0.00 | 58 | 1015.4 |
| 20260906010005 | 70 | 2 | 1.0 | 2.0 | 0.00 | 0.00 | 0.00 | 55 | 1015.5 |
| 20260906005506 | 71 | 72 | 5.0 | 7.0 | 0.00 | 0.00 | 0.00 | 55 | 1015.5 |
| 20260906005005 | 71 | 62 | 3.0 | 7.0 | 0.00 | 0.00 | 0.00 | 56 | 1015.5 |
| 20260906004505 | 71 | 67 | 3.0 | 6.0 | 0.00 | 0.00 | 0.00 | 56 | 1015.5 |
| 20260906004005 | 72 | 75 | 3.0 | 7.0 | 0.00 | 0.00 | 0.00 | 57 | 1015.5 |
| 20260906003505 | 72 | 66 | 3.0 | 6.0 | 0.00 | 0.00 | 0.00 | 56 | 1015.5 |
| 20260906002505 | 72 | 86 | 4.0 | 6.0 | 0.00 | 0.00 | 0.00 | 54 | 1015.5 |
| 20260906002005 | 72 | 89 | 6.0 | 8.0 | 0.00 | 0.00 | 0.00 | 50 | 1015.4 |
| 20260906001505 | 72 | 73 | 1.0 | 5.0 | 0.00 | 0.00 | 0.00 | 52 | 1015.4 |
| 20260906001005 | 72 | 309 | 1.0 | 6.0 | 0.00 | 0.00 | 0.00 | 53 | 1015.3 |
| 20260906000505 | 72 | 31 | 2.0 | 5.0 | 0.00 | 0.00 | 0.00 | 52 | 1015.3 |
| 20260906000005 | 72 | 172 | 3.0 | 5.0 | 0.00 | 0.00 | 0.00 | 53 | 1015.4 |
| 20260905235005 | 72 | 189 | 5.0 | 9.0 | 0.00 | 0.00 | 0.00 | 51 | 1015.4 |
| 20260905234505 | 72 | 79 | 2.0 | 2.0 | 0.00 | 0.00 | 0.00 | 51 | 1015.4 |
| 20260905234005 | 73 | 204 | 3.0 | 7.0 | 0.00 | 0.00 | 0.00 | 49 | 1015.5 |
| 20260905233505 | 73 | 196 | 3.0 | 9.0 | 0.00 | 0.00 | 0.00 | 49 | 1015.5 |
| 20260905233005 | 73 | 191 | 6.0 | 10.0 | 0.00 | 0.00 | 0.00 | 49 | 1015.5 |
| 20260905232005 | 72 | 237 | 4.0 | 12.0 | 0.00 | 0.00 | 0.00 | 50 | 1015.5 |
| 20260905231505 | 73 | 122 | 5.0 | 9.0 | 0.00 | 0.00 | 0.00 | 49 | 1015.5 |
| 20260905231005 | 72 | 185 | 6.0 | 10.0 | 0.00 | 0.00 | 0.00 | 52 | 1015.6 |
| 20260905230505 | 72 | 232 | 3.0 | 9.0 | 0.00 | 0.00 | 0.00 | 52 | 1015.5 |
| 20260905224506 | 72 | 205 | 4.0 | 7.0 | 0.00 | 0.00 | 0.00 | 53 | 1015.8 |
| 20260905224006 | 71 | 209 | 3.0 | 6.0 | 0.00 | 0.00 | 0.00 | 53 | 1015.8 |
| 20260905223505 | 71 | 246 | 3.0 | 9.0 | 0.00 | 0.00 | 0.00 | 54 | 1015.8 |
| 20260905223005 | 71 | 239 | 3.0 | 7.0 | 0.00 | 0.00 | 0.00 | 57 | 1015.8 |
| 20260905222505 | 70 | 212 | 5.0 | 9.0 | 0.00 | 0.00 | 0.00 | 57 | 1015.9 |